Flag for U.S.A. Weather past 2 weeks in Harrisburg, Pennsylvania, U.S.A.

Now
88 °F

Partly sunny.


Feels Like: 91 °F
Forecast: 71 / 86 °F
Wind: 9 mph from Southwest

Location: Capital City Airport

Current Time: Sep 2, 2014 at 3:33:26 PM

Latest Report: Sep 2, 2014 at 2:56 PM


Visibility: 10 mi

Pressure: 29.88 "Hg

Humidity: 50%

Dew point: 67 °F

Location of HarrisburgLocation

Historic Weather in Harrisburg — Graph

°F

Harrisburg temperature yesterday

Maximum temperature yesterday: 85 °F (at 3:56 PM)
Minimum temperature yesterday: 70 °F (at 2:56 AM)
Average temperature yesterday: 76 °F

Past Weeks' High & Low Weather Summary

 TemperatureHumidityPressure
High88 °F (Aug 27, 3:56 PM)97% (Aug 21, 2:56 AM)30.24 "Hg (Aug 21, 2:56 AM)
Low53 °F (Aug 29, 4:56 AM)37% (Aug 25, 4:56 PM)29.82 "Hg (Aug 18, 6:56 PM)
Average72 °F75%30.04 "Hg
* Reported Aug 18 1:56 PM — Sep 2 1:56 PM, Harrisburg, Weather by CustomWeather, © 2014

Note: Actual official high and low records may vary slightly from our data, if they occured in-between our weather recording intervals... More about our weather records

Advertising

Harrisburg weather history for previous 24 hours

 ConditionsComfort  
Time TempWeatherWind HumidityBarometerVisibility
1:56 PM
Sep 2
87 °FPartly sunny.7 mph53%29.90 "Hg10 mi
12:56 PM87 °FScattered clouds.10 mph53%29.92 "Hg10 mi
11:56 AM85 °FScattered clouds.N/A57%29.94 "Hg10 mi
10:56 AM82 °FPartly sunny.9 mph65%29.96 "Hg10 mi
9:56 AM81 °FSunny.5 mph69%29.96 "Hg10 mi
8:56 AM77 °FPassing clouds.No wind74%29.94 "Hg10 mi
7:56 AM74 °FSunny.3 mph85%29.95 "Hg10 mi
6:56 AM71 °FClear.3 mph93%29.94 "Hg10 mi
5:56 AM70 °FClear.No wind97%29.92 "Hg10 mi
4:56 AM71 °FClear.No wind96%29.91 "Hg10 mi
3:56 AM74 °FClear.6 mph91%29.92 "Hg10 mi
2:56 AM75 °FPassing clouds.7 mph88%29.92 "Hg10 mi
1:56 AM77 °FPassing clouds.No wind82%29.93 "Hg10 mi
12:56 AM74 °FPassing clouds.No wind91%29.94 "Hg10 mi
11:56 PM
Sep 1
77 °FClear.No wind85%29.95 "Hg10 mi
10:56 PM74 °FPassing clouds.3 mph91%29.95 "Hg10 mi
9:56 PM75 °FPassing clouds.No wind88%29.96 "Hg10 mi
8:56 PM76 °FClear.No wind85%29.94 "Hg10 mi
7:56 PM80 °FScattered clouds.No wind74%29.93 "Hg10 mi
6:56 PM83 °FScattered clouds.6 mph68%29.93 "Hg10 mi
5:56 PM83 °FPartly sunny.3 mph68%29.92 "Hg10 mi
4:56 PM83 °FScattered clouds.5 mph68%29.94 "Hg10 mi
3:56 PM85 °FScattered clouds.5 mph61%29.94 "Hg10 mi
Weather by CustomWeather, © 2014

See weather overviewHow to use our weather pages